Stations météo

Publicité
Dalwhinnie, Grande-Bretagne (99005): Température de l'air & dewpoint: 13.03.2019 06:00:00 - 19.03.2019 06:00:00 (GMT)Dalwhinnie, Grande-Bretagne (99005): Quantités de précipitations: 13.03.2019 06:00:00 - 19.03.2019 06:00:00 (GMT)
Date & Time tt [°C] td [°C] rr [mm]
19.03.2019 06:00:00 - - -
19.03.2019 05:00:00 4,8 3,8 0,0
19.03.2019 04:00:00 4,5 3,5 0,0
19.03.2019 03:00:00 4,4 3,2 0,0
19.03.2019 02:00:00 4,2 3,2 0,0
19.03.2019 01:00:00 3,9 3,1 0,0
19.03.2019 00:00:00 3,7 2,7 0,0
18.03.2019 23:00:00 4,0 3,2 0,0
18.03.2019 22:00:00 3,7 2,8 0,0
18.03.2019 21:00:00 4,1 3,2 0,0
18.03.2019 20:00:00 4,3 3,1 0,0
18.03.2019 19:00:00 4,4 2,8 0,0
18.03.2019 18:00:00 4,6 3,3 0,0
18.03.2019 17:00:00 5,4 2,9 0,0
18.03.2019 16:00:00 5,9 2,3 0,0
18.03.2019 15:00:00 6,4 2,0 0,0
18.03.2019 14:00:00 6,5 2,7 0,0
18.03.2019 13:00:00 5,7 2,1 0,0
18.03.2019 12:00:00 4,9 1,0 0,0
18.03.2019 11:00:00 3,8 1,5 0,0
18.03.2019 10:00:00 3,7 0,8 0,0
18.03.2019 09:00:00 2,7 0,3 0,0
18.03.2019 08:00:00 -0,7 -1,6 0,0
18.03.2019 07:00:00 -2,4 -3,0 0,0
18.03.2019 06:00:00 -3,8 -4,6 0,0
18.03.2019 05:00:00 -3,2 -4,2 0,0
18.03.2019 04:00:00 -2,8 -3,9 0,0
18.03.2019 03:00:00 -2,9 -4,0 0,0
18.03.2019 02:00:00 -2,7 -3,8 0,0
18.03.2019 01:00:00 -3,0 -4,0 0,0
18.03.2019 00:00:00 -2,9 -4,7 0,0
17.03.2019 23:00:00 -1,5 -4,0 0,0
17.03.2019 22:00:00 -0,5 -3,6 0,0
17.03.2019 21:00:00 1,3 -3,3 0,0
17.03.2019 20:00:00 2,4 -3,3 0,0
17.03.2019 19:00:00 2,7 -2,7 0,0
17.03.2019 18:00:00 3,2 -3,1 0,0
17.03.2019 17:00:00 3,9 -2,2 0,0
17.03.2019 16:00:00 4,3 -1,4 0,0
17.03.2019 15:00:00 3,6 -0,7 0,0
17.03.2019 14:00:00 4,0 0,4 0,0
17.03.2019 13:00:00 2,2 0,3 0,4
17.03.2019 12:00:00 2,4 0,2 1,0
17.03.2019 11:00:00 3,2 -0,2 0,0
17.03.2019 10:00:00 2,9 -0,4 0,8
17.03.2019 09:00:00 2,0 -1,0 0,0
17.03.2019 08:00:00 1,4 -1,0 0,0
17.03.2019 07:00:00 1,0 -2,7 0,0
17.03.2019 06:00:00 1,0 -2,6 0,0
17.03.2019 05:00:00 0,7 -2,5 0,0
17.03.2019 04:00:00 0,8 -2,0 0,0
17.03.2019 03:00:00 0,8 -2,5 0,0
17.03.2019 02:00:00 0,7 -1,7 0,0
17.03.2019 01:00:00 0,5 -1,9 0,0
17.03.2019 00:00:00 0,9 -2,2 0,0
16.03.2019 23:00:00 0,6 -1,9 0,0
16.03.2019 22:00:00 0,7 -1,7 0,0
16.03.2019 21:00:00 0,6 -1,5 0,0
16.03.2019 20:00:00 0,4 -1,1 0,0
16.03.2019 19:00:00 -0,1 -0,9 0,0
16.03.2019 18:00:00 -0,1 -1,0 0,0
16.03.2019 17:00:00 0,0 -0,8 0,4
16.03.2019 16:00:00 0,0 -0,5 0,6
16.03.2019 15:00:00 0,1 -0,6 0,8
16.03.2019 14:00:00 0,1 -0,7 1,0
16.03.2019 13:00:00 0,4 -0,4 1,0
16.03.2019 12:00:00 0,0 -0,5 0,4
16.03.2019 11:00:00 -0,3 -0,9 0,4
16.03.2019 10:00:00 -0,3 -1,0 0,0
16.03.2019 09:00:00 0,1 -0,6 0,0
16.03.2019 08:00:00 -0,2 -0,7 0,0
16.03.2019 07:00:00 -0,3 -1,0 0,0
16.03.2019 06:00:00 0,2 -1,1 0,0
16.03.2019 05:00:00 0,6 -1,3 0,0
16.03.2019 04:00:00 1,0 -1,4 0,0
16.03.2019 03:00:00 1,1 -1,3 0,0
16.03.2019 02:00:00 1,1 -1,6 0,0
16.03.2019 01:00:00 1,5 -1,4 0,0
16.03.2019 00:00:00 0,9 -0,8 0,0
15.03.2019 23:00:00 1,2 -1,0 0,0
15.03.2019 22:00:00 1,4 -1,9 0,0
15.03.2019 21:00:00 1,5 -1,4 0,0
15.03.2019 20:00:00 1,4 -1,2 0,2
15.03.2019 19:00:00 1,7 -1,9 0,6
15.03.2019 18:00:00 1,2 -0,5 0,2
15.03.2019 17:00:00 1,9 -0,2 0,2
15.03.2019 16:00:00 1,7 -0,1 0,4
15.03.2019 15:00:00 1,6 -0,3 0,6
15.03.2019 14:00:00 1,3 -0,7 0,2
15.03.2019 13:00:00 2,4 0,0 1,0
15.03.2019 12:00:00 3,3 -0,6 0,6
15.03.2019 11:00:00 2,2 -0,2 0,4
15.03.2019 10:00:00 3,2 -0,1 1,4
15.03.2019 09:00:00 0,9 -0,4 0,6
15.03.2019 08:00:00 2,2 0,0 0,4
15.03.2019 07:00:00 2,0 0,2 1,0
15.03.2019 06:00:00 2,6 0,8 1,2
15.03.2019 05:00:00 4,2 1,3 1,2
15.03.2019 04:00:00 2,6 1,8 2,2
15.03.2019 03:00:00 2,9 1,7 2,2
15.03.2019 02:00:00 3,2 2,2 0,6
15.03.2019 01:00:00 3,2 1,7 0,2
15.03.2019 00:00:00 3,7 1,0 0,0
14.03.2019 23:00:00 3,5 0,9 0,0
14.03.2019 22:00:00 3,8 0,4 0,0
14.03.2019 21:00:00 3,7 1,0 0,0
14.03.2019 20:00:00 3,1 1,0 0,2
14.03.2019 19:00:00 3,1 0,9 0,0
14.03.2019 18:00:00 3,8 1,0 0,4
14.03.2019 17:00:00 3,7 1,3 0,8
14.03.2019 16:00:00 4,2 1,4 0,6
14.03.2019 15:00:00 4,9 1,5 0,0
14.03.2019 14:00:00 5,5 2,2 0,4
14.03.2019 13:00:00 3,9 1,3 0,2
14.03.2019 12:00:00 3,6 1,3 0,8
14.03.2019 11:00:00 5,7 0,7 0,0
14.03.2019 10:00:00 4,9 1,2 0,0
14.03.2019 09:00:00 3,9 1,2 0,4
14.03.2019 08:00:00 2,5 0,8 1,6
14.03.2019 07:00:00 3,5 1,8 0,6
14.03.2019 06:00:00 2,7 1,6 1,6
14.03.2019 05:00:00 3,4 1,4 2,2
14.03.2019 04:00:00 4,1 2,3 1,6
14.03.2019 03:00:00 4,4 2,6 1,4
14.03.2019 02:00:00 5,3 3,4 1,8
14.03.2019 01:00:00 5,5 3,5 1,6
14.03.2019 00:00:00 5,5 3,6 1,4
13.03.2019 23:00:00 4,8 3,0 2,4
13.03.2019 22:00:00 2,7 1,9 2,8
13.03.2019 21:00:00 2,4 1,0 1,0
13.03.2019 20:00:00 2,5 1,0 0,2
13.03.2019 19:00:00 2,8 0,7 0,0
13.03.2019 18:00:00 3,8 -0,2 0,0
13.03.2019 17:00:00 4,0 0,9 0,0
13.03.2019 16:00:00 4,5 1,2 0,6
13.03.2019 15:00:00 4,8 3,1 0,4
13.03.2019 14:00:00 4,7 2,4 1,4
13.03.2019 13:00:00 6,2 1,3 0,2
13.03.2019 12:00:00 5,8 0,6 0,0
13.03.2019 11:00:00 5,4 0,7 0,0
13.03.2019 10:00:00 5,1 -0,1 0,0
13.03.2019 09:00:00 3,5 0,5 0,2
13.03.2019 08:00:00 3,0 -0,6 0,0
13.03.2019 07:00:00 2,7 -0,5 0,0
13.03.2019 06:00:00 3,1 0,0 0,0

tt = Température de l'air
td = dewpoint
rr = Quantités de précipitations

stations d'obs. à proximité